{"data":{"norad_id":62079,"epoch":"2026-05-24T11:30:40.325760Z","epoch_age_seconds":115865,"freshness":"FRESH","line1":"1 62079U 24218B   26144.47963340  .00000212  00000+0  13078-4 0  9991","line2":"2 62079  97.4393 152.1478 0001616  85.5360 274.6060 15.19720637 82848","mean_motion":15.19720637,"eccentricity":0.0001616,"inclination_deg":97.4393,"raan_deg":152.1478,"arg_perigee_deg":85.536,"mean_anomaly_deg":274.606,"bstar":1.3078e-5,"rev_number":8284,"period_min":94.754257127325,"perigee_km":505.57163331337,"apogee_km":507.79680753181,"semimajor_km":6884.8212204226,"source":"CELESTRAK","updated_at":"2026-05-25T13:38:02.756309Z"}}